Kosmos-945

operational
NORAD ID: 10291 Int'l Des: 1977-079 Owner: GUKOSR Country: SU
LEOCIRCULAR

About Kosmos-945

Description loading...

Live Position

Loading 3D Globe...

Upcoming Passes

Altitude History

Altitude vs Time

uPlot chart will show altitude changes over time

Two-Line Element Set

1 10291U 77079G 25347.68179486 .00000006 00000-0 14567-3 0 9995
2 10291 74.0255 329.4739 0018175 179.1075 354.9626 12.47246523177991
Epoch: Dec 13, 2025 • Age: 16 hours

Current Status

Altitude 1495.5 km
Velocity 7.11 km/s
Sub-Earth Point -15.17°S, 110.78°E
Launch Date Aug 24, 1977
Age 48.3 years
Type other

Technical Details

Classification Payload
Mass 60.00 kg
Dry Mass 60.00 kg
Total Mass 60.00 kg
Length 0.80 m
Diameter 0.80 m
Span 0.80 m
Shape Poly
Manufacturer NPOPM
Bus Type Strela-1 11F625
Phase Status In Orbit
Owner/State GUKOSR/SU

Large Constellations

Loading constellations...